Content
SEND FEEDBACK

Daily
Averages
Monthly
Summary
United States of America

TULLAHOMA, TENNESSEE


Home > North America > United States > Tennessee
Elevation: 1081 feet     Latitude: 35 22N     Longitude: 086 15W

WEATHER
 
SELECT A DAY
Number of Records: 64,953;   Date Range: 9/2/10 - 12/17/14
 
SHARE

PRINT THIS DATA

[ ← Previous Day ]
WEATHER ALMANAC - DECEMBER 31, 2013
[ Next Day → ]
[ °C ]   °F
Weather ElementAverageHighLow
Temperature28.3 °F39.2 °F (1:35 pm)19.4 °F (7:15 am)
Dewpoint22.1 °F24.8 °F (12:55 am)17.6 °F (4:35 am)
Humidity79.1 %100 % (6:15 am)52 % (1:55 pm)
Barometer30.36 in30.46 in (9:35 am)30.25 in (12:55 am)
Wind Speed1.5 mph6.9 mph (1:15 pm)
Weather ElementAverage
Visibility8.9 mi
Wind DirectionNE (44.3 °)

Weather ElementTotal
Precipitation---
Heating Degree Days35.7 (Base 65)
Averaged from 70 records on December 31, 2013
WEATHER CONDITIONS BREAKOUT
WIND DIRECTION BREAKOUT
WEATHER BY HOUR - DECEMBER 31, 2013
[ °C ]   °F
Local TimeTemperatureDewpointHumidityBarometerVisibilityWind DirectionWind SpeedGust SpeedPrecipitationEventsConditions
12:55 AM26.6 °F24.8 °F93 %30.25 in6.0 miCalmClear
1:15 AM26.6 °F24.8 °F93 %30.27 in5.0 miCalmClear
1:35 AM24.8 °F23.0 °F93 %30.28 in4.0 miCalmClear
1:55 AM23.0 °F21.2 °F93 %30.30 in6.0 miCalmClear
2:15 AM23.0 °F21.2 °F93 %30.30 in4.0 miCalmClear
2:35 AM24.8 °F23.0 °F93 %30.30 in5.0 miCalmClear
2:55 AM24.8 °F23.0 °F93 %30.30 in4.0 miCalmPartly Cloudy
3:15 AM23.0 °F21.2 °F93 %30.30 in4.0 miCalmClear
3:35 AM23.0 °F19.4 °F86 %30.31 in6.0 miCalmClear
3:55 AM21.2 °F19.4 °F93 %30.31 in8.0 miCalmClear
4:15 AM21.2 °F19.4 °F93 %30.31 in7.0 miCalmClear
4:35 AM21.2 °F17.6 °F86 %30.32 in9.0 miCalmClear
4:55 AM21.2 °F19.4 °F93 %30.33 in8.0 miWNW (300°)3.5 mphClear
5:15 AM21.2 °F19.4 °F93 %30.33 in7.0 miWNW (300°)3.5 mphClear
5:35 AM23.0 °F21.2 °F93 %30.34 in8.0 miWest (260°)3.5 mphClear
5:55 AM21.2 °F19.4 °F93 %30.36 in7.0 miWNW (300°)3.5 mphClear
6:15 AM21.2 °F21.2 °F100 %30.35 in9.0 miCalmClear
6:35 AM21.2 °F19.4 °F93 %30.36 in10.0 miCalmClear
6:55 AM21.2 °F17.6 °F86 %30.38 in8.0 miCalmClear
7:15 AM19.4 °F17.6 °F93 %30.38 in7.0 miWSW (250°)3.5 mphClear
7:35 AM21.2 °F19.4 °F93 %30.38 in6.0 miCalmClear
7:55 AM21.2 °F19.4 °F93 %30.40 in8.0 miCalmClear
8:15 AM24.8 °F21.2 °F86 %30.41 in9.0 miCalmClear
8:35 AM26.6 °F23.0 °F86 %30.42 in9.0 miCalmClear
8:55 AM26.6 °F24.8 °F93 %30.43 in9.0 miCalmClear
9:15 AM28.4 °F24.8 °F86 %30.45 in10.0 miCalmClear
9:35 AM28.4 °F23.0 °F80 %30.46 in10.0 miWNW (300°)3.5 mphClear
9:55 AM28.4 °F21.2 °F74 %30.46 in10.0 miNorth (10°)3.5 mphClear
10:15 AM28.4 °F23.0 °F80 %30.46 in10.0 miCalmClear
10:35 AM30.2 °F21.2 °F69 %30.46 in10.0 miCalmClear
10:55 AM30.2 °F21.2 °F69 %30.45 in10.0 miNorth (360°)3.5 mphClear
11:15 AM30.2 °F21.2 °F69 %30.43 in10.0 miEast (90°)5.8 mphClear
11:35 AM32.0 °F21.2 °F64 %30.40 in10.0 miEast (90°)3.5 mphClear
11:55 AM33.8 °F23.0 °F65 %30.39 in10.0 miVariable3.5 mphClear
12:15 PM35.6 °F23.0 °F60 %30.37 in10.0 miVariable5.8 mphClear
12:35 PM35.6 °F23.0 °F60 %30.37 in10.0 miEast (80°)3.5 mphClear
12:55 PM37.4 °F24.8 °F60 %30.36 in10.0 miCalmClear
1:15 PM37.4 °F24.8 °F60 %30.35 in10.0 miNE (50°)6.9 mphClear
1:35 PM39.2 °F24.8 °F56 %30.35 in10.0 miNE (50°)4.6 mphClear
1:55 PM39.2 °F23.0 °F52 %30.35 in10.0 miENE (70°)5.8 mphClear
2:15 PM39.2 °F23.0 °F52 %30.35 in10.0 miNNE (30°)5.8 mphClear
2:35 PM39.2 °F23.0 °F52 %30.34 in10.0 miVariable5.8 mphClear
2:55 PM39.2 °F24.8 °F56 %30.34 in10.0 miNorth (10°)3.5 mphClear
3:15 PM39.2 °F23.0 °F52 %30.35 in10.0 miNE (40°)5.8 mphClear
3:35 PM39.2 °F23.0 °F52 %30.36 in10.0 miNE (40°)4.6 mphClear
3:55 PM37.4 °F24.8 °F60 %30.36 in10.0 miEast (80°)3.5 mphClear
4:15 PM37.4 °F23.0 °F56 %30.36 in10.0 miCalmClear
4:35 PM37.4 °F23.0 °F56 %30.36 in10.0 miCalmClear
4:55 PM37.4 °F24.8 °F60 %30.36 in10.0 miCalmClear
5:15 PM33.8 °F24.8 °F70 %30.36 in10.0 miCalmClear
5:35 PM30.2 °F24.8 °F80 %30.35 in10.0 miCalmClear
5:55 PM30.2 °F24.8 °F80 %30.36 in10.0 miCalmClear
6:15 PM30.2 °F23.0 °F75 %30.37 in10.0 miCalmClear
6:35 PM26.6 °F23.0 °F86 %30.37 in10.0 miSouth (190°)3.5 mphClear
6:55 PM28.4 °F23.0 °F80 %30.37 in10.0 miCalmClear
7:15 PM26.6 °F23.0 °F86 %30.36 in10.0 miCalmClear
7:35 PM28.4 °F23.0 °F80 %30.35 in10.0 miCalmClear
7:55 PM28.4 °F23.0 °F80 %30.35 in10.0 miCalmClear
8:15 PM26.6 °F21.2 °F80 %30.35 in10.0 miCalmClear
8:35 PM26.6 °F21.2 °F80 %30.34 in10.0 miCalmClear
8:55 PM24.8 °F21.2 °F86 %30.35 in10.0 miSSW (200°)3.5 mphClear
9:15 PM24.8 °F21.2 °F86 %30.34 in10.0 miCalmClear
9:35 PM24.8 °F21.2 °F86 %30.34 in10.0 miCalmClear
9:55 PM26.6 °F21.2 °F80 %30.33 in10.0 miCalmClear
10:15 PM24.8 °F21.2 °F86 %30.34 in10.0 miCalmClear
10:35 PM24.8 °F21.2 °F86 %30.34 in10.0 miCalmClear
10:55 PM24.8 °F21.2 °F86 %30.34 in10.0 miCalmClear
11:15 PM24.8 °F21.2 °F86 %30.34 in10.0 miCalmClear
11:35 PM26.6 °F23.0 °F86 %30.33 in10.0 miCalmClear
11:55 PM23.0 °F21.2 °F93 %30.34 in10.0 miCalmClear
Hourly data recorded from KTHA, located miles away from Tullahoma, Tennessee







STORIES FROM OUR PARTNERS